Weather in Kondratyevo

Russia / Irkutsk Oblast     57°21′04″N   98°11′07″E
temp.,
°C
wind,
m/s
gust,
m/s
humid.,
%
clouds,
%
prec.,
mm/h
press.,
hPa
HPBL,
m
13 may, thu
thu1323:00+3ne22524 0.0 101812
02:00+1e11580 0.0 101910
05:000ene11633 0.0 101910
08:00+5e13455 0.0 1020279
11:00+10e23335 0.0 10201886
14:00+13ese23250 0.0 10182016
17:00+13sse23220 0.0 10172103
20:00+11sse22330 0.0 101733
14 may, fri
fri1423:00+5s23480 0.0 101832
02:00+3sse22510 0.0 101730
05:00+1se22580 0.0 101618
08:00+7sse413435 0.0 1014551
11:00+12s5729100 0.0 10111092
14:00+16ssw5623100 0.0 10081703
17:00+18sw472652 0.0 10062359
20:00+10wnw5972100 0.1 1008827
15 may, sat
sat1523:00+6wnw51086100 4.0 1012911
02:00+2w5118527 4.1 1014670
05:00+1w4118999 0.0 1015606
08:00+4w51176100 0.0 10151073
11:00+8w7104599 0.0 10131766
14:00+4sw51294100 0.7 1012887
17:00+6wsw51489100 0.5 10111115
20:00+6wsw21095100 2.7 1011481
16 may, sun
sun1623:00+6sw1298100 0.8 100971
02:00+7n23100100 9.8 1007126
05:00+6n2698100 3.4 1008329
08:00+4n2694100 4.3 1011433
11:00+5nnw1384100 0.1 1012431
14:00+10w2356100 0.1 10111060
17:00+12w3542100 0.0 10101626
20:00+9wsw366744 0.0 1011299
17 may, mon
mon1723:00+4wsw2593100 0.0 101295
02:00+2nnw2476100 0.0 101367
05:00+1nnw286834 0.0 1015192
08:00+3nnw365098 0.0 1017437
11:00+8wnw463190 0.0 10171483
14:00+10wnw362552 0.0 10161934
17:00+12wsw3528100 0.0 10132041
20:00+9wsw2552100 0.0 1012173